This demonstration page uses our WeatherBlox Daily Observations layout. Learn more.

38.89511, -77.03637

Hourly Observations for January 7, 2015

Temp ( °F °C ) Dew Point ( °F °C ) Humidity (%) Winds ( mph kmh ) Pressure ( in mb ) Visibility ( mi km ) Precip ( " mm )
12:52 am 00:52 Cloudy 29 -1.7 13 -10.6 51 51 NW 8 13 30.1 1019 10 16.0934 0 0
1:52 am 01:52 Mostly Cloudy 26 -3.3 14 -10 60 60 SW 8 13 30.09 1019 10 16.0934 0 0
2:52 am 02:52 Cloudy 24 -4.4 14 -10 65 65 SSW 6 9 30.07 1018 10 16.0934 0 0
3:52 am 03:52 Cloudy 24 -4.4 15 -9.4 68 68 WSW 5 7 30.05 1018 10 16.0934 0 0
4:52 am 04:52 Mostly Cloudy 26 -3.3 17 -8.3 69 69 SW 7 11 30.04 1017 10 16.0934 0 0
5:52 am 05:52 Partly Cloudy 26 -3.3 17 -8.3 69 69 W 8 13 30.03 1017 10 16.0934 0 0
6:52 am 06:52 Mostly Cloudy 30 -1.1 14 -10 51 51 NW 16 26 30.05 1018 10 16.0934 0 0
7:52 am 07:52 Mostly Cloudy 27 -2.8 8 -13.3 45 45 NW 15 24 30.1 1019 10 16.0934 0 0
8:52 am 08:52 Mostly Cloudy 27 -2.8 10 -12.2 49 49 NW 17 28 30.15 1021 10 16.0934 0 0
9:52 am 09:52 Mostly Cloudy 27 -2.8 8 -13.3 45 45 NW 16 26 30.15 1021 10 16.0934 0 0
10:52 am 10:52 Mostly Cloudy 28 -2.2 7 -13.9 41 41 NW 20 31 30.15 1021 10 16.0934 0 0
11:52 am 11:52 Mostly Cloudy 26 -3.3 7 -13.9 44 44 NW 13 20 30.15 1021 10 16.0934 0 0
12:31 pm 12:31 Cloudy with Light Snow 27 -3 7 -14 43 43 WNW 17 28 30.15 1021 10 16.0934 0 0.0254
12:52 pm 12:52 Mostly Cloudy 25 -3.9 7 -13.9 46 46 NW 21 33 30.16 1021 10 16.0934 0 0.0254
1:52 pm 13:52 Mostly Cloudy 25 -3.9 4 -15.6 40 40 WNW 20 31 30.18 1022 10 16.0934 0 0
2:52 pm 14:52 Mostly Cloudy 26 -3.3 3 -16.1 37 37 NW 22 35 30.22 1023 10 16.0934 0 0.0254
3:52 pm 15:52 Mostly Cloudy 24 -4.4 -1 -18.3 33 33 NNW 18 30 30.25 1024 10 16.0934 0 0
4:52 pm 16:52 Mostly Cloudy 22 -5.6 1 -17.2 40 40 WNW 15 24 30.28 1025 10 16.0934 0 0
5:52 pm 17:52 Partly Cloudy 21 -6.1 0 -17.8 39 39 WNW 21 33 30.31 1026 10 16.0934 0 0
6:52 pm 18:52 Partly Cloudy 20 -6.7 -1 -18.3 40 40 NW 21 33 30.34 1028 10 16.0934 0 0
7:52 pm 19:52 Partly Cloudy 19 -7.2 -5 -20.6 34 34 NW 20 31 30.38 1029 10 16.0934 0 0
8:52 pm 20:52 Mostly Clear 18 -7.8 -10 -23.3 28 28 NW 23 37 30.4 1030 10 16.0934 0 0
9:52 pm 21:52 Mostly Clear 17 -8.3 -9 -22.8 30 30 WNW 16 26 30.43 1031 10 16.0934 0 0
10:52 pm 22:52 Mostly Clear 16 -8.9 -8 -22.2 33 33 WNW 14 22 30.47 1032 10 16.0934 0 0
11:52 pm 23:52 Mostly Clear 15 -9.4 -8 -22.2 35 35 NW 21 33 30.48 1032 10 16.0934 0 0

Powered by AerisWeather